Location: Bernadets
(43.3537°N, 0.3167°E)
Time: 23:12:28
(UTC+00:00)

ARGOS - Pass Details

Date: 24 October 2021
Orbit: 820 x 834 km, 98.4° (Epoch: 27 November)

Event Time Altitude Azimuth Distance (km) Brightness Sun altitude
Rises 18:19:11 0° 163° (SSE) 3,355 6.2 -14.8°
Reaches altitude 10° 18:21:31 10° 163° (SSE) 2,428 5.4 -15.2°
Maximum altitude 18:26:54 86° 77° (ENE) 840 3.1 -16.2°
Drops below altitude 10° 18:32:22 10° 347° (NNW) 2,453 5.8 -17.2°
Sets 18:34:44 0° 348° (NNW) 3,392 6.5 -17.6°
